Regional Weather Roundup
Issued by NWS Jackson, KY

Home | Current Version | Previous Version | Graphics & Text | Print | Product List | Glossary On
Versions: 1 2 3 4 5 6 7 8 9 10 11 12 13 14 15 16 17 18 19 20 21 22 23 24 25 26 27 28 29 30 31 32 33 34 35 36 37 38 39 40 41 42 43 44 45 46 47 48 49 50
102
ASUS43 KJKL 230910
RWRJKL

EAST KENTUCKY HOURLY WEATHER ROUNDUP
NATIONAL WEATHER SERVICE JACKSON KY
500 AM EDT SAT SEP 23 2017

NOTE: "FAIR" INDICATES FEW OR NO CLOUDS BELOW 12,000 FEET WITH
NO SIGNIFICANT WEATHER AND/OR OBSTRUCTIONS TO VISIBILITY.

* THESE REPORTS ARE NOT UNDER NWS QUALITY CONTROL AND MAY NOT
  REPORT WEATHER SUCH AS PRECIPITATION AND FOG.

KYZ079-080-083-085-087-088-110-112-115-119-120-231000
...EASTERN KENTUCKY...

CITY           SKY/WX    TMP DP  RH WIND       PRES   REMARKS
JACKSON        CLOUDY    67  64  90 E3        30.07S
LONDON         CLEAR     62  60  93 CALM      30.07S
SOMERSET*      CLEAR     61  61 100 CALM      30.07S FOG
MONTICELLO*    PTCLDY    59  59 100 NE9       30.07S FOG
WILLIAMSBURG*    N/A     63  63 100 CALM      30.07R VSB 1/2
MIDDLESBORO*   FOG       63  63 100 CALM      30.09S VSB 1/2
HARLAN APT*    CLOUDY    63  61  94 CALM      30.10S
PIKE CO APT*     N/A     64  64 100 CALM      30.09R
BIG SANDY APT* FOG       62  62 100 CALM      30.08R VSB 1/4
MOREHEAD APT*  FOG       63  61  94 CALM      30.08S VSB 1/2
$$

KYZ035-036-041-042-044-050-067-078-099-231000
...CENTRAL KENTUCKY...

CITY           SKY/WX    TMP DP  RH WIND       PRES   REMARKS
MT STERLING*   CLEAR     61  59  94 CALM      30.08S FOG
FLEMING/MASON* FOG       62  62 100 E3        30.08S VSB<1/4
DANVILLE*      CLEAR     61  59  94 CALM      30.07F
LEXINGTON      CLEAR     65  61  87 CALM      30.07R
FRANKFORT      CLEAR     63  60  90 CALM      30.05S
LOUISVILLE     CLEAR     72  65  78 CALM      30.04S
LEBANON*         N/A     66  63  88 CALM      30.06S
GLASGOW*       CLEAR    N/A N/A N/A CALM      30.03F FOG
BOWLING GREEN  CLEAR     68  68 100 CALM      30.03S
$$

KYZ091>093-OHZ055-061-077-WVZ005-015-034-035-042-231000
...SOUTHERN OHIO/WEST VIRGINIA...

CITY           SKY/WX    TMP DP  RH WIND       PRES   REMARKS
COVINGTON      CLEAR     66  66 100 CALM      30.07S
COLUMBUS       PTCLDY    64  63  96 N3        30.08R
DAYTON         CLEAR     66  62  87 CALM      30.10R
WILMINGTON     CLEAR     60  60 100 CALM      30.09R FOG
HUNTINGTON     FOG       63  61  93 CALM      30.06S VSB 1/4
CHARLESTON     FOG       61  60  97 CALM      30.07S VSB 1
PINEVILLE*     PTCLDY    61  60  96 MISG      30.15S FOG
BECKLEY        PTCLDY    60  59  96 CALM      30.14S
BLUEFIELD      CLOUDY    61  59  93 CALM      30.15S
LOGAN CO APT*  FOG       64  64 100 CALM      30.09S VSB 1/2
$$

VAZ002-007-008-TNZ017-027-036-066-071-231000
...SOUTHWEST VIRGINIA/EAST TENNESSEE...

CITY           SKY/WX    TMP DP  RH WIND       PRES   REMARKS
WISE*          PTCLDY    64  64 100 CALM      30.15F
JONESVILLE*      N/A     63  61  94 CALM      30.11S
ABINGDON*      PTCLDY    66  64  91 CALM      30.11S
BRISTOL        MOCLDY    62  62 100 N3        30.09S
MORRISTOWN*    MOSUNNY   68  63  83 CALM      30.06S
SEVIERVILLE*   SUNNY     63  61  94 CALM      30.05S
KNOXVILLE      PTCLDY    66  63  90 E3        30.04S
LAFOLLETTE*    FOG       63  63 100 CALM      30.10S VSB 1/4
OAK RIDGE      PTCLDY    68  65  90 CALM      30.06S
CROSSVILLE     PTCLDY    63  62  97 CALM      30.09S FOG
NASHVILLE      PTCLDY    70  68  93 NE3       30.02S
$$

...KEY TO REMARKS...
VSB - VISIBILITY IN MILES
WCI - WIND CHILL INDEX
HX  - HEAT INDEX

$$




USA.gov is the U.S. government's official web portal to all federal, state and local government web resources and services.